Puerto Plata, Dominican Republic

4:52 AM AST on January 23, 2018 (GMT -0400)
Gregorio Luperon International

Weather History for MDPP - February, 2013

Change the Weather History Date:

Sunday, February 17, 2013

  Actual Average Record
Temperature  
Mean Temperature 78 °F -  
Max Temperature 87 °F 81 °F 90 °F (2016)
Min Temperature 68 °F 68 °F 59 °F (2006)
Cooling Degree Days 12    
Growing Degree Days 28 (Base 50)    
Moisture  
Dew Point 74 °F    
Average Humidity 81    
Maximum Humidity 100    
Minimum Humidity 66    
Precipitation  
Precipitation 0.00 in - - ()
Sea Level Pressure  
Sea Level Pressure 29.99 in    
Wind  
Wind Speed 2 mph ()    
Max Wind Speed 12 mph    
Max Gust Speed -    
Visibility 7.1 miles    
Events      
Averages and records for this station are not official NWS values.
T = Trace of Precipitation, MM = Missing Value Source: Averaged Metar Reports

Daily Weather History Graph

Daily Weather History Graph

Search for Another Location

Airport or City:

Trip Planner

Search our weather history database for the weather conditions in past years. The results will help you decide how hot, cold, wet, or windy it might be!

Date:

Astronomy

Feb. 17, 2013 Rise Set
Actual Time 7:09 AM AST 6:42 PM AST
Civil Twilight 6:47 AM AST 7:05 PM AST
Nautical Twilight 6:21 AM AST 7:31 PM AST
Astronomical Twilight 5:55 AM AST 7:56 PM AST
Moon 12:02 PM AST (2/17) 12:35 AM AST (2/17)
Length of Visible Light 12h 17m
Length of Day
11h 32m
Waxing Crescent, 48% of the Moon is Illuminated
Feb 17
Waxing Crescent
Feb 17
First Quarter
Feb 25
Full
Mar 4
Last Quarter
Mar 11
New

Hourly Weather History & Observations

Time (AST) Temp. Heat Index Dew Point Humidity Pressure Visibility Wind Dir Wind Speed Gust Speed Precip Events Conditions
2:00 AM 73 °F - 71 °F 91% 29.96 in 10 mi Calm Calm - -   Scattered Clouds
2:00 AM 73.4 °F - 71.6 °F 94% 29.95 in 6.2 mi Calm Calm - N/A   Partly Cloudy
7:00 AM 82 °F - 72 °F 66% 30.03 in 10 mi Calm Calm - -   Scattered Clouds
8:00 AM 69 °F - 68 °F 94% 29.99 in 10 mi Calm Calm - -   Scattered Clouds
8:00 AM 68.0 °F - 68.0 °F 100% 29.98 in 6.2 mi Calm Calm - N/A   Partly Cloudy
9:00 AM 73.4 °F - 69.8 °F 88% 30.01 in 6.2 mi Calm Calm - N/A   Partly Cloudy
10:00 AM 78.8 °F - 71.6 °F 78% 30.01 in 6.2 mi Calm Calm - N/A   Partly Cloudy
11:00 AM 82.4 °F 88.2 °F 73.4 °F 74% 30.01 in 6.2 mi Calm Calm - N/A   Partly Cloudy
12:00 PM 87.8 °F 97.6 °F 75.2 °F 66% 30.01 in 6.2 mi SE 11.5 mph - N/A   Partly Cloudy
1:00 PM 86.0 °F 95.1 °F 75.2 °F 70% 30.01 in 6.2 mi NNE 6.9 mph - N/A   Partly Cloudy
2:00 PM 84 °F - 77 °F 73% 29.99 in 10 mi ENE 6.7 mph - -   Partly Cloudy
2:00 PM 84.2 °F 94.1 °F 77.0 °F 79% 29.98 in 6.2 mi ENE 6.9 mph - N/A   Partly Cloudy
3:00 PM 84.2 °F 94.1 °F 77.0 °F 79% 29.98 in 6.2 mi NNE 11.5 mph - N/A   Partly Cloudy
4:00 PM 84.2 °F 94.1 °F 77.0 °F 79% 29.95 in 6.2 mi North 6.9 mph - N/A   Partly Cloudy
5:00 PM 84 °F - 76 °F 72% 29.98 in 10 mi North 6.7 mph - -   Scattered Clouds
5:00 PM 84.2 °F 94.1 °F 77.0 °F 79% 29.98 in 6.2 mi North 5.8 mph - N/A   Partly Cloudy
6:00 PM 82.4 °F 89.5 °F 75.2 °F 79% 29.98 in 6.2 mi ENE 5.8 mph - N/A   Partly Cloudy
7:00 PM 80.6 °F 86.2 °F 75.2 °F 84% 29.98 in 6.2 mi Calm Calm - N/A   Partly Cloudy
8:00 PM 77.0 °F - 73.4 °F 89% 30.01 in 6.2 mi Calm Calm - N/A   Scattered Clouds
11:00 PM 73.4 °F - 71.6 °F 94% 30.04 in 6.2 mi Calm Calm - N/A   Scattered Clouds